Time,TemperatureF,DewpointF,PressureIn,WindDirection,WindDirectionDegrees,WindSpeedMPH,WindSpeedGustMPH,Humidity,HourlyPrecipIn,Conditions,Clouds,dailyrainin,SoftwareType,DateUTC
2013-06-01 08:17:00,66.2,64.4,29.67,SW,226,9.7,11.5,94,0.00,,,0.00,WeatherDisplay:10.37,2013-06-01 13:17:00,
2013-06-01 08:18:00,66.2,64.4,29.66,South,186,9.9,12.0,94,0.00,,,0.00,WeatherDisplay:10.37,2013-06-01 13:18:00,
2013-06-01 08:23:00,66.3,64.5,29.67,SW,224,9.8,15.0,94,0.00,,,0.00,WeatherDisplay:10.37,2013-06-01 13:23:00,
2013-06-01 08:28:00,66.2,64.1,29.67,SW,217,9.6,12.7,93,0.00,,,0.00,WeatherDisplay:10.37,2013-06-01 13:28:00,
2013-06-01 08:33:00,66.2,64.4,29.67,SW,221,10.0,13.0,94,0.00,,,0.00,WeatherDisplay:10.37,2013-06-01 13:33:00,
2013-06-01 08:38:00,66.2,64.1,29.67,SSW,200,12.5,16.1,93,0.00,,,0.00,WeatherDisplay:10.37,2013-06-01 13:38:00,
2013-06-01 08:43:00,66.2,64.1,29.67,SW,219,11.8,15.0,93,0.00,,,0.00,WeatherDisplay:10.37,2013-06-01 13:43:00,
2013-06-01 08:48:00,66.3,64.2,29.67,South,184,11.2,13.8,93,0.00,,,0.00,WeatherDisplay:10.37,2013-06-01 13:48:00,
2013-06-01 08:54:00,66.4,64.6,29.68,SW,231,10.3,11.5,94,0.00,,,0.00,WeatherDisplay:10.37,2013-06-01 13:54:00,
2013-06-01 08:59:00,66.5,64.4,29.68,SW,221,9.5,15.0,93,0.00,,,0.00,WeatherDisplay:10.37,2013-06-01 13:59:00,
2013-06-01 09:04:00,66.6,64.5,29.68,WSW,239,9.9,13.8,93,0.00,,,0.00,WeatherDisplay:10.37,2013-06-01 14:04:00,
2013-06-01 09:09:00,66.7,64.6,29.68,SSW,198,9.1,11.5,93,0.00,,,0.00,WeatherDisplay:10.37,2013-06-01 14:09:00,
2013-06-01 09:14:00,66.7,64.3,29.67,WSW,238,9.0,11.5,92,0.00,,,0.00,WeatherDisplay:10.37,2013-06-01 14:14:00,
2013-06-01 09:19:00,66.7,64.3,29.67,SW,215,11.0,12.7,92,0.00,,,0.00,WeatherDisplay:10.37,2013-06-01 14:19:00,
2013-06-01 09:24:00,66.7,64.3,29.67,SW,229,8.7,12.0,92,0.00,,,0.00,WeatherDisplay:10.37,2013-06-01 14:24:00,
2013-06-01 09:29:00,66.6,64.2,29.67,SW,221,10.5,16.1,92,0.00,,,0.00,WeatherDisplay:10.37,2013-06-01 14:29:00,
2013-06-01 09:34:00,66.6,64.5,29.67,SW,228,9.9,12.7,93,0.00,,,0.00,WeatherDisplay:10.37,2013-06-01 14:34:00,
2013-06-01 09:39:00,66.6,64.2,29.67,SW,222,11.7,15.0,92,0.00,,,0.00,WeatherDisplay:10.37,2013-06-01 14:39:00,
2013-06-01 09:44:00,66.6,64.5,29.67,SW,219,10.6,13.8,93,0.00,,,0.00,WeatherDisplay:10.37,2013-06-01 14:44:00,
2013-06-01 09:49:00,66.8,64.7,29.67,SW,215,10.0,15.0,93,0.00,,,0.00,WeatherDisplay:10.37,2013-06-01 14:49:00,
2013-06-01 09:54:00,66.9,64.5,29.67,SSW,205,10.7,13.8,92,0.00,,,0.00,WeatherDisplay:10.37,2013-06-01 14:54:00,
2013-06-01 09:59:00,67.0,64.6,29.67,SSW,210,13.5,17.3,92,0.00,,,0.00,WeatherDisplay:10.37,2013-06-01 14:59:00,
2013-06-01 10:04:00,67.0,64.6,29.67,SSW,201,11.7,16.1,92,0.00,,,0.00,WeatherDisplay:10.37,2013-06-01 15:04:00,
2013-06-01 10:09:00,66.9,64.5,29.67,SSW,208,13.6,18.4,92,0.00,,,0.00,WeatherDisplay:10.37,2013-06-01 15:09:00,
2013-06-01 10:14:00,66.8,64.4,29.67,SW,219,11.5,13.8,92,0.00,,,0.00,WeatherDisplay:10.37,2013-06-01 15:14:00,
2013-06-01 10:19:00,66.9,64.8,29.67,SW,219,8.4,13.8,93,0.00,,,0.00,WeatherDisplay:10.37,2013-06-01 15:19:00,
2013-06-01 10:24:00,67.0,64.6,29.67,SW,221,11.9,16.1,92,0.00,,,0.00,WeatherDisplay:10.37,2013-06-01 15:24:00,
2013-06-01 10:29:00,67.1,65.0,29.67,WSW,238,10.0,13.0,93,0.00,,,0.00,WeatherDisplay:10.37,2013-06-01 15:29:00,
2013-06-01 10:34:00,67.3,64.9,29.67,SW,225,11.6,14.0,92,0.00,,,0.00,WeatherDisplay:10.37,2013-06-01 15:34:00,
2013-06-01 10:39:00,67.2,65.1,29.67,SW,226,11.0,12.7,93,0.00,,,0.00,WeatherDisplay:10.37,2013-06-01 15:39:00,
2013-06-01 10:44:00,67.2,65.1,29.67,SW,223,11.2,13.8,93,0.00,,,0.00,WeatherDisplay:10.37,2013-06-01 15:44:00,
2013-06-01 10:49:00,67.1,64.7,29.67,SSW,206,12.2,17.3,92,0.00,,,0.00,WeatherDisplay:10.37,2013-06-01 15:49:00,
2013-06-01 10:54:00,67.4,65.3,29.67,SW,218,8.6,11.5,93,0.00,,,0.00,WeatherDisplay:10.37,2013-06-01 15:54:00,
2013-06-01 10:59:00,67.5,65.1,29.67,SW,229,13.4,16.1,92,0.00,,,0.00,WeatherDisplay:10.37,2013-06-01 15:59:00,
2013-06-01 11:04:00,67.5,65.1,29.67,SSW,193,11.4,13.8,92,0.00,,,0.00,WeatherDisplay:10.37,2013-06-01 16:04:00,
2013-06-01 11:09:00,67.9,65.5,29.67,SW,226,10.6,12.7,92,0.00,,,0.00,WeatherDisplay:10.37,2013-06-01 16:09:00,
2013-06-01 11:14:00,68.1,65.7,29.67,SSW,200,12.5,15.0,92,0.00,,,0.00,WeatherDisplay:10.37,2013-06-01 16:14:00,
2013-06-01 11:19:00,68.6,66.2,29.67,SW,235,10.6,12.7,92,0.00,,,0.00,WeatherDisplay:10.37,2013-06-01 16:19:00,
2013-06-01 11:24:00,68.7,66.0,29.67,SW,221,12.0,15.0,91,0.00,,,0.00,WeatherDisplay:10.37,2013-06-01 16:24:00,
2013-06-01 11:29:00,68.7,66.0,29.67,WSW,245,11.3,12.7,91,0.00,,,0.00,WeatherDisplay:10.37,2013-06-01 16:29:00,
2013-06-01 11:34:00,68.8,66.1,29.66,SW,229,10.2,11.5,91,0.00,,,0.00,WeatherDisplay:10.37,2013-06-01 16:34:00,
2013-06-01 11:39:00,68.9,66.2,29.66,SW,226,9.4,13.0,91,0.00,,,0.00,WeatherDisplay:10.37,2013-06-01 16:39:00,
2013-06-01 11:44:00,69.0,65.9,29.66,SW,229,9.7,11.5,90,0.00,,,0.00,WeatherDisplay:10.37,2013-06-01 16:44:00,
2013-06-01 11:49:00,68.9,65.8,29.66,SW,224,9.4,12.7,90,0.00,,,0.00,WeatherDisplay:10.37,2013-06-01 16:49:00,
2013-06-01 11:54:00,69.0,66.3,29.66,SW,234,10.0,15.0,91,0.00,,,0.00,WeatherDisplay:10.37,2013-06-01 16:54:00,
2013-06-01 11:59:00,69.2,66.5,29.66,WSW,238,8.2,10.4,91,0.00,,,0.00,WeatherDisplay:10.37,2013-06-01 16:59:00,
2013-06-01 12:04:00,69.3,66.2,29.66,SW,231,9.7,11.5,90,0.00,,,0.00,WeatherDisplay:10.37,2013-06-01 17:04:00,
2013-06-01 12:09:00,69.0,66.6,29.67,WSW,245,8.2,10.4,92,0.00,,,0.00,WeatherDisplay:10.37,2013-06-01 17:09:00,
2013-06-01 12:14:00,69.3,66.9,29.66,SW,225,7.9,10.4,92,0.00,,,0.00,WeatherDisplay:10.37,2013-06-01 17:14:00,
2013-06-01 12:19:00,69.6,66.5,29.67,WSW,250,9.9,15.0,90,0.00,,,0.00,WeatherDisplay:10.37,2013-06-01 17:19:00,
2013-06-01 12:24:00,69.6,66.9,29.67,SW,229,10.9,15.0,91,0.00,,,0.00,WeatherDisplay:10.37,2013-06-01 17:24:00,
2013-06-01 12:29:00,69.8,66.4,29.67,WSW,245,11.3,13.8,89,0.00,,,0.00,WeatherDisplay:10.37,2013-06-01 17:29:00,
2013-06-01 12:34:00,70.3,66.9,29.67,SW,231,9.0,11.5,89,0.00,,,0.00,WeatherDisplay:10.37,2013-06-01 17:34:00,
2013-06-01 12:39:00,70.5,67.1,29.67,West,260,9.6,11.5,89,0.00,,,0.00,WeatherDisplay:10.37,2013-06-01 17:39:00,
2013-06-01 12:44:00,70.4,67.0,29.66,WSW,255,6.7,9.2,89,0.00,,,0.00,WeatherDisplay:10.37,2013-06-01 17:44:00,
2013-06-01 12:49:00,70.7,67.6,29.66,West,263,7.5,10.4,90,0.00,,,0.00,WeatherDisplay:10.37,2013-06-01 17:49:00,
2013-06-01 12:54:00,71.1,67.0,29.65,West,262,8.5,11.5,87,0.00,,,0.00,WeatherDisplay:10.37,2013-06-01 17:54:00,
2013-06-01 13:00:00,71.7,67.3,29.65,WSW,256,8.0,11.5,86,0.00,,,0.00,WeatherDisplay:10.37,2013-06-01 18:00:00,
2013-06-01 13:05:00,72.2,67.4,29.66,SW,222,7.4,11.5,85,0.00,,,0.00,WeatherDisplay:10.37,2013-06-01 18:05:00,
2013-06-01 13:10:00,72.4,66.9,29.66,SW,227,7.8,10.4,83,0.00,,,0.00,WeatherDisplay:10.37,2013-06-01 18:10:00,
2013-06-01 13:15:00,72.7,67.6,29.66,WSW,248,10.8,11.5,84,0.00,,,0.00,WeatherDisplay:10.37,2013-06-01 18:15:00,
2013-06-01 13:20:00,73.2,67.4,29.65,SSW,212,9.0,11.5,82,0.00,,,0.00,WeatherDisplay:10.37,2013-06-01 18:20:00,
2013-06-01 13:25:00,73.6,67.8,29.65,SW,236,10.8,13.0,82,0.00,,,0.00,WeatherDisplay:10.37,2013-06-01 18:25:00,
2013-06-01 13:30:00,74.0,67.8,29.65,WSW,240,11.5,13.8,81,0.00,,,0.00,WeatherDisplay:10.37,2013-06-01 18:30:00,
2013-06-01 13:35:00,74.1,67.5,29.65,WSW,238,9.5,10.4,80,0.00,,,0.00,WeatherDisplay:10.37,2013-06-01 18:35:00,
2013-06-01 13:40:00,74.5,66.8,29.65,WSW,245,10.4,16.0,77,0.00,,,0.00,WeatherDisplay:10.37,2013-06-01 18:40:00,
2013-06-01 13:45:00,74.3,67.4,29.65,WSW,243,9.7,15.0,79,0.00,,,0.00,WeatherDisplay:10.37,2013-06-01 18:45:00,
2013-06-01 13:50:00,74.0,66.0,29.65,WSW,240,9.4,12.7,76,0.00,,,0.00,WeatherDisplay:10.37,2013-06-01 18:50:00,
2013-06-01 13:55:00,73.8,66.9,29.64,WSW,253,9.3,12.0,79,0.00,,,0.00,WeatherDisplay:10.37,2013-06-01 18:55:00,
2013-06-01 14:00:00,73.8,66.5,29.64,WSW,243,10.0,12.7,78,0.00,,,0.00,WeatherDisplay:10.37,2013-06-01 19:00:00,
2013-06-01 14:05:00,73.8,66.9,29.64,WSW,245,8.4,12.7,79,0.00,,,0.00,WeatherDisplay:10.37,2013-06-01 19:05:00,
2013-06-01 14:10:00,73.7,66.4,29.64,SW,233,9.7,11.5,78,0.00,,,0.00,WeatherDisplay:10.37,2013-06-01 19:10:00,
2013-06-01 14:15:00,74.3,66.6,29.64,WSW,245,10.3,13.0,77,0.00,,,0.00,WeatherDisplay:10.37,2013-06-01 19:15:00,
2013-06-01 14:20:00,74.4,67.1,29.64,WSW,254,8.0,13.0,78,0.00,,,0.00,WeatherDisplay:10.37,2013-06-01 19:20:00,
2013-06-01 14:25:00,74.1,65.3,29.64,WSW,255,9.0,15.0,74,0.00,,,0.00,WeatherDisplay:10.37,2013-06-01 19:25:00,
2013-06-01 14:30:00,74.5,66.0,29.64,West,259,10.0,13.0,75,0.00,,,0.00,WeatherDisplay:10.37,2013-06-01 19:30:00,
2013-06-01 14:35:00,75.2,66.3,29.64,WSW,252,9.4,13.0,74,0.00,,,0.00,WeatherDisplay:10.37,2013-06-01 19:35:00,
2013-06-01 14:40:00,75.2,67.1,29.64,WSW,255,10.6,13.8,76,0.00,,,0.00,WeatherDisplay:10.37,2013-06-01 19:40:00,
2013-06-01 14:45:00,74.8,66.0,29.64,WSW,245,9.7,12.7,74,0.00,,,0.00,WeatherDisplay:10.37,2013-06-01 19:45:00,
2013-06-01 14:50:00,74.9,66.8,29.64,WSW,257,9.3,13.8,76,0.00,,,0.00,WeatherDisplay:10.37,2013-06-01 19:50:00,
2013-06-01 14:55:00,75.1,66.6,29.65,West,263,10.0,13.0,75,0.00,,,0.00,WeatherDisplay:10.37,2013-06-01 19:55:00,
2013-06-01 15:00:00,75.0,66.1,29.64,West,260,12.0,15.0,74,0.00,,,0.00,WeatherDisplay:10.37,2013-06-01 20:00:00,
2013-06-01 15:05:00,75.6,66.7,29.64,West,264,12.0,15.0,74,0.00,,,0.00,WeatherDisplay:10.37,2013-06-01 20:05:00,
2013-06-01 15:10:00,76.0,65.9,29.64,WSW,253,11.2,13.0,71,0.00,,,0.00,WeatherDisplay:10.37,2013-06-01 20:10:00,
2013-06-01 15:15:00,75.9,65.0,29.64,WSW,251,10.0,18.0,69,0.00,,,0.00,WeatherDisplay:10.37,2013-06-01 20:15:00,
2013-06-01 15:20:00,75.8,64.5,29.64,West,264,11.1,16.1,68,0.00,,,0.00,WeatherDisplay:10.37,2013-06-01 20:20:00,
2013-06-01 15:25:00,75.9,65.0,29.64,West,263,10.0,14.0,69,0.00,,,0.00,WeatherDisplay:10.37,2013-06-01 20:25:00,
2013-06-01 15:30:00,76.1,64.8,29.63,West,273,9.0,14.0,68,0.00,,,0.00,WeatherDisplay:10.37,2013-06-01 20:30:00,
2013-06-01 15:35:00,76.5,62.5,29.63,WSW,248,13.6,17.3,62,0.00,,,0.00,WeatherDisplay:10.37,2013-06-01 20:35:00,
2013-06-01 15:40:00,76.6,64.0,29.63,West,273,12.1,16.1,65,0.00,,,0.00,WeatherDisplay:10.37,2013-06-01 20:40:00,
2013-06-01 15:45:00,76.2,62.7,29.62,West,259,10.8,13.8,63,0.00,,,0.00,WeatherDisplay:10.37,2013-06-01 20:45:00,
2013-06-01 15:50:00,75.8,62.3,29.63,West,265,13.2,13.8,63,0.00,,,0.00,WeatherDisplay:10.37,2013-06-01 20:50:00,
2013-06-01 15:55:00,75.8,63.2,29.62,WSW,257,9.4,13.8,65,0.00,,,0.00,WeatherDisplay:10.37,2013-06-01 20:55:00,
2013-06-01 16:00:00,75.7,63.5,29.63,WNW,285,10.3,13.8,66,0.00,,,0.00,WeatherDisplay:10.37,2013-06-01 21:00:00,
2013-06-01 16:05:00,76.1,64.3,29.63,West,263,12.2,12.2,67,0.00,,,0.00,WeatherDisplay:10.37,2013-06-01 21:05:00,
2013-06-01 16:10:00,75.4,62.4,29.63,WSW,256,8.5,13.8,64,0.00,,,0.00,WeatherDisplay:10.37,2013-06-01 21:10:00,
2013-06-01 16:15:00,75.7,63.1,29.64,WNW,285,11.2,15.0,65,0.00,,,0.00,WeatherDisplay:10.37,2013-06-01 21:15:00,
2013-06-01 16:20:00,76.0,63.4,29.64,West,259,12.4,13.8,65,0.00,,,0.00,WeatherDisplay:10.37,2013-06-01 21:20:00,
2013-06-01 16:25:00,75.5,62.0,29.64,West,267,13.0,16.0,63,0.00,,,0.00,WeatherDisplay:10.37,2013-06-01 21:25:00,
2013-06-01 16:30:00,75.6,63.4,29.64,West,267,10.0,16.0,66,0.00,,,0.00,WeatherDisplay:10.37,2013-06-01 21:30:00,
2013-06-01 16:35:00,76.1,60.7,29.64,West,263,10.9,13.8,59,0.00,,,0.00,WeatherDisplay:10.37,2013-06-01 21:35:00,
2013-06-01 16:40:00,76.1,62.6,29.64,West,260,7.9,13.8,63,0.00,,,0.00,WeatherDisplay:10.37,2013-06-01 21:40:00,
2013-06-01 16:45:00,76.4,61.5,29.64,West,274,12.5,15.0,60,0.00,,,0.00,WeatherDisplay:10.37,2013-06-01 21:45:00,
2013-06-01 16:50:00,76.2,61.3,29.64,WNW,294,10.2,16.1,60,0.00,,,0.00,WeatherDisplay:10.37,2013-06-01 21:50:00,
2013-06-01 16:55:00,76.1,62.1,29.64,WNW,283,8.1,13.8,62,0.00,,,0.00,WeatherDisplay:10.37,2013-06-01 21:55:00,
2013-06-01 17:00:00,75.9,61.5,29.64,West,279,10.3,12.7,61,0.00,,,0.00,WeatherDisplay:10.37,2013-06-01 22:00:00,
2013-06-01 17:05:00,75.3,60.9,29.64,WNW,287,15.3,21.9,61,0.00,,,0.00,WeatherDisplay:10.37,2013-06-01 22:05:00,
2013-06-01 17:10:00,74.6,60.7,29.64,West,276,14.3,19.0,62,0.00,,,0.00,WeatherDisplay:10.37,2013-06-01 22:10:00,
2013-06-01 17:15:00,74.4,61.9,29.65,West,276,13.1,19.6,65,0.00,,,0.00,WeatherDisplay:10.37,2013-06-01 22:15:00,
2013-06-01 17:20:00,73.8,60.9,29.65,WNW,292,13.0,18.0,64,0.00,,,0.00,WeatherDisplay:10.37,2013-06-01 22:20:00,
2013-06-01 17:25:00,73.7,61.6,29.65,WNW,293,12.7,15.0,66,0.00,,,0.00,WeatherDisplay:10.37,2013-06-01 22:25:00,
2013-06-01 17:30:00,73.4,61.3,29.65,WNW,294,10.6,13.8,66,0.00,,,0.00,WeatherDisplay:10.37,2013-06-01 22:30:00,
2013-06-01 17:35:00,73.3,60.8,29.65,WNW,299,13.0,17.0,65,0.00,,,0.00,WeatherDisplay:10.37,2013-06-01 22:35:00,
2013-06-01 17:40:00,73.0,60.5,29.65,WNW,287,10.8,13.8,65,0.00,,,0.00,WeatherDisplay:10.37,2013-06-01 22:40:00,
2013-06-01 17:45:00,72.0,60.0,29.65,WNW,297,9.2,13.8,66,0.00,,,0.00,WeatherDisplay:10.37,2013-06-01 22:45:00,
2013-06-01 17:50:00,72.3,59.4,29.66,West,264,10.6,14.0,64,0.00,,,0.00,WeatherDisplay:10.37,2013-06-01 22:50:00,
2013-06-01 17:55:00,72.6,60.2,29.65,WNW,290,11.1,13.8,65,0.00,,,0.00,WeatherDisplay:10.37,2013-06-01 22:55:00,
2013-06-01 18:00:00,72.2,59.3,29.66,WNW,296,12.6,17.3,64,0.00,,,0.00,WeatherDisplay:10.37,2013-06-01 23:00:00,
2013-06-01 18:05:00,71.2,59.3,29.66,WNW,300,11.1,15.0,66,0.00,,,0.00,WeatherDisplay:10.37,2013-06-01 23:05:00,
2013-06-01 18:10:00,70.8,59.7,29.66,WNW,297,11.1,13.8,68,0.00,,,0.00,WeatherDisplay:10.37,2013-06-01 23:10:00,
2013-06-01 18:15:00,70.6,59.5,29.66,West,281,12.5,17.3,68,0.00,,,0.00,WeatherDisplay:10.37,2013-06-01 23:15:00,
2013-06-01 18:20:00,70.2,58.7,29.66,WNW,296,11.8,15.0,67,0.00,,,0.00,WeatherDisplay:10.37,2013-06-01 23:20:00,
2013-06-01 18:25:00,70.4,59.7,29.66,West,276,10.3,12.7,69,0.00,,,0.00,WeatherDisplay:10.37,2013-06-01 23:25:00,
2013-06-01 18:30:00,70.3,59.6,29.66,West,276,10.2,12.7,69,0.00,,,0.00,WeatherDisplay:10.37,2013-06-01 23:30:00,
2013-06-01 18:35:00,70.2,60.7,29.66,West,281,6.3,11.5,72,0.00,,,0.00,WeatherDisplay:10.37,2013-06-01 23:35:00,
2013-06-01 18:40:00,70.1,60.3,29.66,WNW,290,8.1,10.4,71,0.00,,,0.00,WeatherDisplay:10.37,2013-06-01 23:40:00,
2013-06-01 18:45:00,69.7,59.9,29.67,WNW,302,8.2,10.4,71,0.00,,,0.00,WeatherDisplay:10.37,2013-06-01 23:45:00,
2013-06-01 18:50:00,69.2,59.4,29.67,WNW,293,9.6,12.7,71,0.00,,,0.00,WeatherDisplay:10.37,2013-06-01 23:50:00,
2013-06-01 18:55:00,69.0,59.6,29.67,WNW,293,8.6,11.5,72,0.00,,,0.00,WeatherDisplay:10.37,2013-06-01 23:55:00,
2013-06-01 19:00:00,68.9,60.3,29.67,WNW,297,8.2,11.5,74,0.00,CLR,,0.00,WeatherDisplay:10.37,2013-06-02 00:00:00,
2013-06-01 19:05:00,69.0,60.4,29.67,WNW,290,7.9,11.5,74,0.00,CLR,,0.00,WeatherDisplay:10.37,2013-06-02 00:05:00,
2013-06-01 19:10:00,68.9,60.3,29.68,NW,306,9.1,13.8,74,0.00,CLR,,0.00,WeatherDisplay:10.37,2013-06-02 00:10:00,
2013-06-01 19:15:00,68.9,59.9,29.68,WNW,290,8.7,13.0,73,0.00,CLR,,0.00,WeatherDisplay:10.37,2013-06-02 00:15:00,
2013-06-01 19:21:00,68.6,59.2,29.68,WNW,294,11.7,16.0,72,0.00,CLR,,0.00,WeatherDisplay:10.37,2013-06-02 00:21:00,
2013-06-01 19:26:00,67.9,58.9,29.68,WNW,294,10.8,13.8,73,0.00,CLR,,0.00,WeatherDisplay:10.37,2013-06-02 00:26:00,
2013-06-01 19:31:00,67.5,59.7,29.68,WNW,289,8.5,11.5,76,0.00,CLR,,0.00,WeatherDisplay:10.37,2013-06-02 00:31:00,
2013-06-01 19:36:00,67.3,59.5,29.68,WNW,297,7.5,10.4,76,0.00,CLR,,0.00,WeatherDisplay:10.37,2013-06-02 00:36:00,
2013-06-01 19:41:00,67.5,59.7,29.68,WNW,287,10.5,13.8,76,0.00,CLR,,0.00,WeatherDisplay:10.37,2013-06-02 00:41:00,
2013-06-01 19:46:00,67.4,59.6,29.68,WNW,301,8.9,12.7,76,0.00,CLR,,0.00,WeatherDisplay:10.37,2013-06-02 00:46:00,
2013-06-01 19:51:00,67.3,59.8,29.68,WNW,293,7.7,11.5,77,0.00,CLR,,0.00,WeatherDisplay:10.37,2013-06-02 00:51:00,
2013-06-01 19:56:00,67.1,59.6,29.69,NNW,333,10.1,11.5,77,0.00,CLR,,0.00,WeatherDisplay:10.37,2013-06-02 00:56:00,
2013-06-01 20:01:00,67.1,59.3,29.69,NW,309,9.7,12.7,76,0.00,CLR,,0.00,WeatherDisplay:10.37,2013-06-02 01:01:00,
2013-06-01 20:06:00,67.1,59.6,29.69,WNW,295,11.0,15.0,77,0.00,CLR,,0.00,WeatherDisplay:10.37,2013-06-02 01:06:00,
2013-06-01 20:11:00,66.7,59.6,29.69,West,269,11.0,12.7,78,0.00,CLR,,0.00,WeatherDisplay:10.37,2013-06-02 01:11:00,
2013-06-01 20:16:00,66.4,59.7,29.69,WNW,288,8.9,11.5,79,0.00,CLR,,0.00,WeatherDisplay:10.37,2013-06-02 01:16:00,
2013-06-01 20:21:00,66.2,59.8,29.69,WNW,300,6.3,10.4,80,0.00,CLR,,0.00,WeatherDisplay:10.37,2013-06-02 01:21:00,
2013-06-01 20:26:00,66.0,59.7,29.69,WNW,283,8.4,11.5,80,0.00,CLR,,0.00,WeatherDisplay:10.37,2013-06-02 01:26:00,
2013-06-01 20:31:00,65.7,59.7,29.69,WNW,290,6.9,9.2,81,0.00,CLR,,0.00,WeatherDisplay:10.37,2013-06-02 01:31:00,
2013-06-01 20:36:00,65.3,59.7,29.70,WNW,283,4.6,6.9,82,0.00,CLR,,0.00,WeatherDisplay:10.37,2013-06-02 01:36:00,
2013-06-01 20:41:00,65.0,59.7,29.70,WNW,302,4.6,5.8,83,0.00,CLR,,0.00,WeatherDisplay:10.37,2013-06-02 01:41:00,
2013-06-01 20:46:00,64.9,59.6,29.70,WNW,291,6.3,8.1,83,0.00,CLR,,0.00,WeatherDisplay:10.37,2013-06-02 01:46:00,
2013-06-01 20:51:00,64.7,59.4,29.70,West,280,5.9,8.1,83,0.00,CLR,,0.00,WeatherDisplay:10.37,2013-06-02 01:51:00,
2013-06-01 20:56:00,64.5,59.6,29.70,West,274,3.8,4.6,84,0.00,CLR,,0.00,WeatherDisplay:10.37,2013-06-02 01:56:00,
2013-06-01 21:01:00,64.3,59.7,29.70,West,274,4.8,6.9,85,0.00,CLR,,0.00,WeatherDisplay:10.37,2013-06-02 02:01:00,
2013-06-01 21:06:00,64.1,59.5,29.70,WNW,283,4.3,5.8,85,0.00,CLR,,0.00,WeatherDisplay:10.37,2013-06-02 02:06:00,
2013-06-01 21:11:00,63.9,59.6,29.70,West,281,5.1,6.0,86,0.00,CLR,,0.00,WeatherDisplay:10.37,2013-06-02 02:11:00,
2013-06-01 21:16:00,63.9,59.6,29.71,West,263,4.1,4.6,86,0.00,CLR,,0.00,WeatherDisplay:10.37,2013-06-02 02:16:00,
2013-06-01 21:21:00,64.0,59.7,29.71,West,277,4.5,5.8,86,0.00,CLR,,0.00,WeatherDisplay:10.37,2013-06-02 02:21:00,
2013-06-01 21:26:00,64.1,59.8,29.71,West,260,5.7,6.9,86,0.00,CLR,,0.00,WeatherDisplay:10.37,2013-06-02 02:26:00,
2013-06-01 21:31:00,64.1,59.8,29.71,WNW,283,3.8,6.9,86,0.00,CLR,,0.00,WeatherDisplay:10.37,2013-06-02 02:31:00,
2013-06-01 21:36:00,64.0,59.7,29.72,West,274,4.7,6.0,86,0.00,CLR,,0.00,WeatherDisplay:10.37,2013-06-02 02:36:00,
2013-06-01 21:41:00,64.1,59.8,29.72,West,276,4.6,5.8,86,0.00,CLR,,0.00,WeatherDisplay:10.37,2013-06-02 02:41:00,
2013-06-01 21:46:00,64.1,59.8,29.72,WSW,256,4.7,7.0,86,0.00,CLR,,0.00,WeatherDisplay:10.37,2013-06-02 02:46:00,
2013-06-01 21:51:00,64.3,60.0,29.72,WSW,257,5.8,6.9,86,0.00,CLR,,0.00,WeatherDisplay:10.37,2013-06-02 02:51:00,
2013-06-01 21:56:00,64.3,59.7,29.73,West,273,6.0,8.1,85,0.00,CLR,,0.00,WeatherDisplay:10.37,2013-06-02 02:56:00,
2013-06-01 22:02:00,64.3,59.7,29.73,West,269,4.6,6.9,85,0.00,CLR,,0.00,WeatherDisplay:10.37,2013-06-02 03:02:00,
2013-06-01 22:07:00,64.2,59.9,29.73,West,269,5.1,5.8,86,0.00,CLR,,0.00,WeatherDisplay:10.37,2013-06-02 03:07:00,
2013-06-01 22:12:00,64.1,59.8,29.73,West,276,4.5,6.0,86,0.00,CLR,,0.00,WeatherDisplay:10.37,2013-06-02 03:12:00,
2013-06-01 22:17:00,63.9,60.0,29.73,West,270,5.1,5.8,87,0.00,CLR,,0.00,WeatherDisplay:10.37,2013-06-02 03:17:00,
2013-06-01 22:22:00,63.8,59.9,29.73,West,262,6.5,8.1,87,0.00,CLR,,0.00,WeatherDisplay:10.37,2013-06-02 03:22:00,
2013-06-01 22:27:00,63.9,59.6,29.73,West,262,7.4,8.1,86,0.00,CLR,,0.00,WeatherDisplay:10.37,2013-06-02 03:27:00,
2013-06-01 22:32:00,63.9,59.6,29.73,West,278,6.9,11.5,86,0.00,CLR,,0.00,WeatherDisplay:10.37,2013-06-02 03:32:00,
2013-06-01 22:37:00,64.0,59.7,29.73,West,264,6.7,11.5,86,0.00,CLR,,0.00,WeatherDisplay:10.37,2013-06-02 03:37:00,
2013-06-01 22:42:00,64.1,59.8,29.73,WNW,283,5.4,6.9,86,0.00,CLR,,0.00,WeatherDisplay:10.37,2013-06-02 03:42:00,
2013-06-01 22:47:00,64.1,59.8,29.73,West,264,6.0,9.2,86,0.00,CLR,,0.00,WeatherDisplay:10.37,2013-06-02 03:47:00,
2013-06-01 22:52:00,63.9,59.6,29.73,West,260,5.3,6.9,86,0.00,CLR,,0.00,WeatherDisplay:10.37,2013-06-02 03:52:00,
2013-06-01 22:57:00,63.7,59.8,29.73,West,267,6.5,7.0,87,0.00,CLR,,0.00,WeatherDisplay:10.37,2013-06-02 03:57:00,
2013-06-01 23:01:00,63.6,59.7,29.73,West,266,6.3,8.1,87,0.00,CLR,,0.00,WeatherDisplay:10.37,2013-06-02 04:01:00,
2013-06-01 23:02:00,63.6,59.7,29.73,West,274,6.9,10.4,87,0.00,CLR,,0.00,WeatherDisplay:10.37,2013-06-02 04:02:00,
2013-06-01 23:07:00,63.6,59.7,29.73,West,262,6.6,9.2,87,0.00,CLR,,0.00,WeatherDisplay:10.37,2013-06-02 04:07:00,
2013-06-01 23:12:00,63.6,59.7,29.73,West,266,6.9,9.2,87,0.00,CLR,,0.00,WeatherDisplay:10.37,2013-06-02 04:12:00,
2013-06-01 23:17:00,63.4,59.5,29.73,West,269,6.7,9.2,87,0.00,CLR,,0.00,WeatherDisplay:10.37,2013-06-02 04:17:00,
2013-06-01 23:22:00,63.3,59.4,29.74,West,277,6.7,9.2,87,0.00,CLR,,0.00,WeatherDisplay:10.37,2013-06-02 04:22:00,
2013-06-01 23:27:00,63.2,59.6,29.74,West,277,7.6,11.5,88,0.00,CLR,,0.00,WeatherDisplay:10.37,2013-06-02 04:27:00,
2013-06-01 23:32:00,63.3,59.4,29.74,West,278,7.2,10.4,87,0.00,CLR,,0.00,WeatherDisplay:10.37,2013-06-02 04:32:00,
2013-06-01 23:37:00,63.3,59.4,29.74,WSW,255,7.8,10.4,87,0.00,CLR,,0.00,WeatherDisplay:10.37,2013-06-02 04:37:00,
2013-06-01 23:42:00,63.3,59.4,29.74,West,263,8.6,11.5,87,0.00,CLR,,0.00,WeatherDisplay:10.37,2013-06-02 04:42:00,
2013-06-01 23:48:00,63.2,59.6,29.74,WSW,253,7.2,10.0,88,0.00,CLR,,0.00,WeatherDisplay:10.37,2013-06-02 04:48:00,
2013-06-01 23:53:00,63.0,59.4,29.75,West,266,6.9,11.5,88,0.00,CLR,,0.00,WeatherDisplay:10.37,2013-06-02 04:53:00,
2013-06-01 23:58:00,62.8,59.2,29.74,WNW,285,6.1,11.5,88,0.00,CLR,,0.00,WeatherDisplay:10.37,2013-06-02 04:58:00,